Location: Six Mile Lake
(44.9000°N, 79.7170°W)
Time: 10:05:57
(UTC-04:00)

NOAA 18 - Pass Details

Date: 01 July 2022
Orbit: 839 x 861 km, 98.9° (Epoch: 19 August)

Event Time Altitude Azimuth Distance (km) Brightness Sun altitude
Exits shadow 23:44:36 16° 207° (SSW) 2,061 6.9 -18.5°
Maximum altitude 23:48:18 34° 264° (W) 1,376 6.4 -18.7°
Drops below altitude 10° 23:53:18 10° 328° (NNW) 2,501 8.9 -19.0°
Sets 23:55:56 0° 338° (NNW) 3,444 10.1 -19.2°
